Location: Boneville
(33.4331°N, 82.4399°W)
Time: 11:39:53
(UTC+00:00)

Hubble Space Telescope - Visible Passes

Search period start: 20 September 2024 00:00
Search period end: 30 September 2024 00:00
Orbit: 505 x 509 km, 28.5° (Epoch: 19 September)

Date Brightness Start Highest point End Pass type
(mag) Time Alt. Az. Time Alt. Az. Time Alt. Az.
24 Sep 3.4 10:22:18 10° SSE 10:23:06 10° SSE 10:23:55 10° SE visible
25 Sep 3.2 10:00:39 10° S 10:02:08 12° SSE 10:03:37 10° SE visible
26 Sep 3.0 09:40:21 13° S 09:41:09 13° SSE 09:43:03 10° SE visible
27 Sep 3.1 09:20:45 14° SSE 09:20:45 14° SSE 09:22:22 10° SE visible
27 Sep 2.0 10:56:36 10° SW 11:00:07 32° S 11:03:40 10° ESE visible
28 Sep 3.5 09:01:05 12° SE 09:01:05 12° SE 09:01:36 10° ESE visible
28 Sep 1.8 10:35:47 11° SW 10:39:08 34° S 10:42:42 10° ESE visible
29 Sep 1.7 10:16:03 21° SW 10:18:06 35° S 10:21:43 10° ESE visible
